Location: Bidwell Hollow
(37.7387°N, 90.1707°W)
Time: 04:55:40
(UTC+00:00)

Explorer 11/Cluster Stage 4 - Pass Details

Date: 18 May 2026
Orbit: 463 x 1173 km, 28.8° (Epoch: 11 June)

Event Time Altitude Azimuth Distance (km) Brightness Sun altitude
Rises 03:20:08 0° 241° (WSW) 4,022 10.4 -21.9°
Reaches altitude 10° 03:23:19 10° 233° (SW) 3,021 9.6 -22.3°
Enters shadow 03:29:20 34° 182° (S) 1,664 7.8 -23.0°
